TimeAEST,TemperatureF,Dew PointF,Humidity,Sea Level PressureIn,VisibilityMPH,Wind Direction,Wind SpeedMPH,Gust SpeedMPH,PrecipitationIn,Events,Conditions,WindDirDegrees,DateUTC
12:00 AM,68,52,46,29.87,16,West,5.8,,,,Partly Cloudy,280,2011-10-01 14:00:00
12:00 AM,68.0,51.8,56,29.86,-9999.0,West,5.8,-,N/A,,Clear,280,2011-10-01 14:00:00
12:30 AM,66.2,53.6,64,29.86,-9999.0,SE,1.2,-,N/A,,Clear,140,2011-10-01 14:30:00
1:00 AM,65,52,53,29.86,,Calm,Calm,,,,,,2011-10-01 15:00:00
1:00 AM,66.2,51.8,60,29.86,-9999.0,Calm,Calm,-,N/A,,Clear,0,2011-10-01 15:00:00
1:30 AM,66.2,50.0,56,29.86,-9999.0,Calm,Calm,-,N/A,,Clear,0,2011-10-01 15:30:00
2:00 AM,66.2,51.8,60,29.83,-9999.0,Calm,Calm,-,N/A,,Clear,0,2011-10-01 16:00:00
2:30 AM,66.2,50.0,56,29.83,-9999.0,South,2.3,-,N/A,,Clear,170,2011-10-01 16:30:00
3:00 AM,67,51,46,29.84,12,SSW,2.3,,,,Smoke,210,2011-10-01 17:00:00
3:00 AM,66.2,51.8,60,29.83,-9999.0,SSW,2.3,-,N/A,,Clear,210,2011-10-01 17:00:00
3:30 AM,64.4,53.6,68,29.83,-9999.0,West,2.3,-,N/A,,Clear,270,2011-10-01 17:30:00
4:00 AM,65,53,56,29.85,,WNW,2.3,,,,,300,2011-10-01 18:00:00
4:00 AM,64.4,53.6,68,29.83,-9999.0,WNW,2.3,-,N/A,,Clear,300,2011-10-01 18:00:00
4:30 AM,62.6,53.6,72,29.83,-9999.0,Calm,Calm,-,N/A,,Clear,0,2011-10-01 18:30:00
5:00 AM,62.6,53.6,72,29.86,6.2,Calm,Calm,-,N/A,,Partly Cloudy,0,2011-10-01 19:00:00
5:30 AM,64.4,55.4,73,29.86,6.2,West,3.5,-,N/A,,Partly Cloudy,280,2011-10-01 19:30:00
6:00 AM,63,56,70,29.88,12,NNW,3.5,,,,Smoke,330,2011-10-01 20:00:00
6:00 AM,62.6,55.4,77,29.86,6.2,NNW,3.5,-,N/A,,Partly Cloudy,330,2011-10-01 20:00:00
6:30 AM,69.8,53.6,56,29.86,6.2,SSE,8.1,-,N/A,,Partly Cloudy,160,2011-10-01 20:30:00
7:00 AM,69,54,50,29.91,,WNW,4.6,,,,,300,2011-10-01 21:00:00
7:00 AM,68.0,53.6,60,29.89,6.2,WNW,4.6,-,N/A,,Partly Cloudy,300,2011-10-01 21:00:00
7:30 AM,75.2,51.8,44,29.92,6.2,ESE,5.8,-,N/A,,Partly Cloudy,120,2011-10-01 21:30:00
8:00 AM,75.2,48.2,38,29.92,-9999.0,SSE,11.5,-,N/A,,Clear,150,2011-10-01 22:00:00
8:30 AM,80.6,50.0,34,29.95,-9999.0,SE,9.2,-,N/A,,Clear,140,2011-10-01 22:30:00
9:00 AM,82,55,29,29.95,11,SSE,10.4,,,,Smoke,150,2011-10-01 23:00:00
9:00 AM,82.4,55.4,39,29.95,6.2,SSE,10.4,-,N/A,,Partly Cloudy,150,2011-10-01 23:00:00
9:30 AM,82.4,55.4,39,29.95,6.2,SE,8.1,-,N/A,,Partly Cloudy,140,2011-10-01 23:30:00
10:00 AM,84,53,24,29.95,,SE,11.5,,,,,140,2011-10-02 00:00:00
10:00 AM,84.2,53.6,35,29.95,-9999.0,SE,11.5,-,N/A,,Clear,140,2011-10-02 00:00:00
10:30 AM,86.0,46.4,25,29.92,-9999.0,ESE,10.4,-,N/A,,Clear,120,2011-10-02 00:30:00
11:00 AM,84.2,48.2,29,29.92,-9999.0,ESE,11.5,-,N/A,,Clear,120,2011-10-02 01:00:00
11:30 AM,86.0,50.0,29,29.92,-9999.0,SE,13.8,-,N/A,,Clear,130,2011-10-02 01:30:00
12:00 PM,86,51,20,29.91,9,ESE,13.8,,,,Smoke,120,2011-10-02 02:00:00
12:00 PM,86.0,50.0,29,29.89,-9999.0,ESE,13.8,-,N/A,,Clear,120,2011-10-02 02:00:00
12:30 PM,86.0,51.8,31,29.89,-9999.0,SE,11.5,-,N/A,,Clear,130,2011-10-02 02:30:00
1:00 PM,86,53,22,29.88,,ESE,13.8,,,,,120,2011-10-02 03:00:00
1:00 PM,86.0,53.6,33,29.86,-9999.0,ESE,13.8,-,N/A,,Clear,120,2011-10-02 03:00:00
1:30 PM,86.0,50.0,29,29.83,-9999.0,ESE,15.0,-,N/A,,Clear,120,2011-10-02 03:30:00
2:00 PM,86.0,50.0,29,29.83,-9999.0,ESE,10.4,-,N/A,,Clear,110,2011-10-02 04:00:00
2:30 PM,86.0,50.0,29,29.83,-9999.0,East,8.1,-,N/A,,Clear,80,2011-10-02 04:30:00
3:00 PM,85,51,20,29.83,11,ENE,11.5,,,,Smoke,60,2011-10-02 05:00:00
3:00 PM,86.0,50.0,29,29.83,-9999.0,ENE,11.5,-,N/A,,Clear,60,2011-10-02 05:00:00
3:30 PM,86.0,46.4,25,29.83,-9999.0,East,12.7,-,N/A,,Clear,90,2011-10-02 05:30:00
4:00 PM,82,46,18,29.84,,SE,12.7,,,,,140,2011-10-02 06:00:00
4:00 PM,82.4,46.4,28,29.83,-9999.0,SE,12.7,-,N/A,,Clear,140,2011-10-02 06:00:00
4:30 PM,82.4,46.4,28,29.83,-9999.0,SE,13.8,-,N/A,,Clear,140,2011-10-02 06:30:00
5:00 PM,80.6,46.4,30,29.83,-9999.0,SE,12.7,-,N/A,,Clear,140,2011-10-02 07:00:00
5:30 PM,78.8,48.2,34,29.83,-9999.0,SE,11.5,-,N/A,,Clear,130,2011-10-02 07:30:00
6:00 PM,77,46,22,29.86,,SE,10.4,,,,,140,2011-10-02 08:00:00
6:00 PM,77.0,46.4,34,29.86,-9999.0,SE,10.4,-,N/A,,Clear,140,2011-10-02 08:00:00
6:30 PM,75.2,42.8,31,29.86,-9999.0,South,11.5,-,N/A,,Clear,170,2011-10-02 08:30:00
7:00 PM,74,50,32,29.90,,SSE,12.7,,,,,160,2011-10-02 09:00:00
7:00 PM,75.2,50.0,41,29.89,-9999.0,SSE,12.7,-,N/A,,Clear,160,2011-10-02 09:00:00
7:30 PM,73.4,51.8,47,29.89,-9999.0,SSE,10.4,-,N/A,,Clear,150,2011-10-02 09:30:00
8:00 PM,73.4,51.8,47,29.92,-9999.0,South,8.1,-,N/A,,Clear,170,2011-10-02 10:00:00
8:30 PM,73.4,50.0,44,29.92,-9999.0,South,9.2,-,N/A,,Clear,180,2011-10-02 10:30:00
9:00 PM,74,49,31,29.94,19,South,8.1,,,,Partly Cloudy,190,2011-10-02 11:00:00
9:00 PM,73.4,50.0,44,29.92,-9999.0,South,8.1,-,N/A,,Clear,190,2011-10-02 11:00:00
9:30 PM,73.4,50.0,44,29.95,-9999.0,South,8.1,-,N/A,,Clear,170,2011-10-02 11:30:00
10:00 PM,72,50,35,29.95,,South,6.9,,,,,170,2011-10-02 12:00:00
10:00 PM,71.6,50.0,46,29.95,-9999.0,South,6.9,-,N/A,,Clear,170,2011-10-02 12:00:00
10:30 PM,69.8,51.8,53,29.95,-9999.0,SSE,6.9,-,N/A,,Clear,150,2011-10-02 12:30:00
11:00 PM,68.0,53.6,60,29.95,-9999.0,SSE,4.6,-,N/A,,Clear,160,2011-10-02 13:00:00
11:30 PM,68.0,53.6,60,29.95,-9999.0,South,3.5,-,N/A,,Clear,180,2011-10-02 13:30:00